Regional Weather Roundup
Issued by NWS

Home | Current Version | Previous Version | Text Only | Print | Product List | Glossary Off
Versions: 1 2 3 4 5 6 7 8 9 10 11 12 13 14 15 16 17 18 19 20 21 22 23 24 25 26 27 28 29 30 31 32 33 34 35 36 37 38 39 40 41 42 43 44 45 46 47 48 49 50

000
ASUS45 KABQ 021101
RWRNM
NEW MEXICO REGIONAL WEATHER ROUNDUP
NATIONAL WEATHER SERVICE ALBUQUERQUE NM
500 AM MDT WED SEP 02 2015

NOTE: "FAIR" MEANS FEW OR NO CLOUDS BELOW 12,000 FEET AGL WITH NO
       SIGNIFICANT WEATHER OR OBSTRUCTIONS TO VISION.

      THIS PRODUCT IS RELEASED AS TWO VERSIONS.  ONE VERSION NEAR
      THE TOP OF THE HOUR CONTAINING PRELIMINARY DATA FROM ALBUQUERQUE
      AND OTHER STATIONS.  A FINAL VERSION WITH ADDITIONAL DATA IS
      ISSUED ABOUT 10 MINUTES AFTER THE HOUR.

NMZ501-503-504-510>518-021200-
NORTHWEST PLATEAU/NORTHCENTRAL MOUNTAINS

CITY           SKY/WX    TMP DP  RH WIND       PRES   REMARKS
FARMINGTON     CLEAR     61  49  64 E7        30.18S
SANTA FE       CLOUDY    63  44  50 N3        30.24S
TAOS           PTCLDY    54  36  50 NW3       30.32S
ANGEL FIRE     FAIR      42  40  93 CALM      30.39S

$$
NMZ402-403-502-505>509-021200-
WESTCENTRAL MOUNTAINS/SOUTHWEST MOUNTAINS

CITY           SKY/WX    TMP DP  RH WIND       PRES   REMARKS
GALLUP         CLEAR     57  49  74 NW3       30.28F
GRANTS         MOCLDY    56  51  85 CALM      30.30F

$$
NMZ407-409-411-412-021200-
SOUTHERN DESERTS

CITY           SKY/WX    TMP DP  RH WIND       PRES   REMARKS
DEMING         MOCLDY    70  53  54 NW8       30.12F
HOLLOMAN AFB   MOCLDY    68  46  43 NE5       30.08S
T OR C         MOCLDY    70  48  45 NW7       30.14S

$$
NMZ519>523-021200-
CENTRAL VALLEYS/CENTRAL HIGHLANDS

CITY           SKY/WX    TMP DP  RH WIND       PRES   REMARKS
ALBUQUERQUE    PTCLDY    67  44  43 SE6       30.19S
DOUBLE EAGLE   CLOUDY    64  48  56 CALM      30.22F
MORIARTY ARPT  FAIR      58  47  64 CALM      30.25S
CLINES CORNERS PTCLDY    60  43  53 SW10      30.28S
BELEN          NOT AVBL
SOCORRO        NOT AVBL

$$
NMZ524>526-539-540-021200-
SOUTHCENTRAL MOUNTAINS

CITY           SKY/WX    TMP DP  RH WIND       PRES   REMARKS
RUIDOSO        NOT AVBL

$$
NMZ527>531-021200-
NORTHEAST HIGHLANDS/NORTHEAST PLAINS

CITY           SKY/WX    TMP DP  RH WIND       PRES   REMARKS
LAS VEGAS      CLEAR     56  47  71 S10       30.27F
RATON          CLEAR     53  47  79 NE7       30.21F
CLAYTON        CLEAR     66  53  63 W14       30.11F

$$
NMZ532>537-021200-
EASTCENTRAL PLAINS

CITY           SKY/WX    TMP DP  RH WIND       PRES   REMARKS
TUCUMCARI      PTCLDY    73  50  44 SW10G22   30.08S
CANNON AFB     PTCLDY    64  51  63 SW6       30.13S
CLOVIS AIRPORT PTCLDY    63  48  59 SW9       30.14S

$$
NMZ028-029-538-021200-
SOUTHEAST PLAINS

CITY           SKY/WX    TMP DP  RH WIND       PRES   REMARKS
ROSWELL        MOCLDY    65  51  60 S5        30.08F
ARTESIA        PTCLDY    68  50  52 SE6       30.09S
CARLSBAD       NOT AVBL
HOBBS            N/A     64  52  63 CALM      30.11S


$$



USA.gov is the U.S. government's official web portal to all federal, state and local government web resources and services.